When you browse on this site, cookies collect data to enhance your experience and personalize the content and advertising you see.
Visit our Privacy Policy to learn more. By continuing to use the site, you agree to this use of cookies and data.
EN

Hourly Weather Middlesbrough

Today, 22 September, Tuesday

Time Temperature Precipitation Wind Pressure Humidity
00:00 +12°C° 0 mm 2 mps 758 mmHg 92%
01:00 +12°C° 0 mm 2 mps 757 mmHg 93%
02:00 +12°C° 0 mm 2 mps 757 mmHg 93%
03:00 +12°C° 0 mm 2 mps 756 mmHg 94%
04:00 +11°C° 0 mm 3 mps 756 mmHg 94%
05:00 +11°C° 0 mm 3 mps 755 mmHg 94%
06:00 +11°C° 0 mm 3 mps 755 mmHg 94%
07:00 +13°C° 0 mm 4 mps 754 mmHg 89%
08:00 +15°C° 0 mm 4 mps 754 mmHg 85%
09:00 +16°C° 0 mm 5 mps 753 mmHg 80%
10:00 +19°C° 0 mm 5 mps 753 mmHg 76%
11:00 +20°C° 0 mm 6 mps 752 mmHg 72%
12:00 +21°C° 0 mm 7 mps 752 mmHg 68%
13:00 +21°C° 0 mm 7 mps 751 mmHg 70%
14:00 +20°C° 0 mm 6 mps 751 mmHg 72%
15:00 +20°C° 0 mm 6 mps 750 mmHg 75%
16:00 +19°C° 0 mm 6 mps 750 mmHg 76%
17:00 +17°C° 0 mm 6 mps 749 mmHg 78%
18:00 +16°C° 0 mm 6 mps 749 mmHg 80%
19:00 +15°C° 0 mm 5 mps 749 mmHg 81%
20:00 +15°C° 0 mm 5 mps 748 mmHg 83%
21:00 +14°C° 0 mm 5 mps 748 mmHg 84%
22:00 +14°C° 0 mm 5 mps 748 mmHg 85%
23:00 +14°C° 0 mm 5 mps 748 mmHg 85%

Tomorrow, 23 September, Wednesday

Time Temperature Precipitation Wind Pressure Humidity
00:00 +13°C° 0 mm 5 mps 748 mmHg 86%
01:00 +13°C° 0.1 mm 4 mps 748 mmHg 85%
02:00 +13°C° 0.1 mm 4 mps 748 mmHg 85%
03:00 +12°C° 0.1 mm 3 mps 748 mmHg 84%
04:00 +12°C° 0 mm 3 mps 748 mmHg 83%
05:00 +12°C° 0 mm 3 mps 748 mmHg 82%
06:00 +11°C° 0 mm 3 mps 749 mmHg 81%
07:00 +11°C° 0 mm 4 mps 749 mmHg 78%
08:00 +11°C° 0 mm 4 mps 749 mmHg 75%
09:00 +11°C° 0 mm 4 mps 749 mmHg 73%
10:00 +12°C° 0.1 mm 5 mps 749 mmHg 74%
11:00 +12°C° 0.1 mm 5 mps 749 mmHg 76%
12:00 +12°C° 0.1 mm 5 mps 749 mmHg 77%
13:00 +12°C° 0.2 mm 5 mps 749 mmHg 79%
14:00 +12°C° 0.2 mm 5 mps 749 mmHg 80%
15:00 +10°C° 0.2 mm 5 mps 749 mmHg 81%
16:00 +10°C° 0.1 mm 5 mps 748 mmHg 82%
17:00 +9°C° 0.1 mm 5 mps 748 mmHg 83%
18:00 +9°C° 0.1 mm 5 mps 748 mmHg 85%
19:00 +10°C° 0.1 mm 4 mps 747 mmHg 85%
20:00 +8°C° 0.1 mm 4 mps 747 mmHg 86%
21:00 +9°C° 0.1 mm 3 mps 746 mmHg 87%
22:00 +7°C° 0.8 mm 4 mps 746 mmHg 87%
23:00 +7°C° 0.8 mm 5 mps 745 mmHg 87%

Day after tomorrow, 24 September, Thursday

Time Temperature Precipitation Wind Pressure Humidity
00:00 +5°C° 0.8 mm 6 mps 745 mmHg 88%
01:00 +6°C° 0.3 mm 5 mps 745 mmHg 88%
02:00 +6°C° 0.3 mm 4 mps 744 mmHg 88%
03:00 +7°C° 0.3 mm 3 mps 744 mmHg 88%
04:00 +5°C° 0 mm 3 mps 744 mmHg 89%
05:00 +5°C° 0 mm 3 mps 744 mmHg 90%
06:00 +5°C° 0 mm 2 mps 744 mmHg 92%
07:00 +6°C° 0 mm 2 mps 744 mmHg 86%
08:00 +8°C° 0 mm 2 mps 743 mmHg 81%
09:00 +9°C° 0 mm 2 mps 743 mmHg 76%
10:00 +9°C° 0.9 mm 3 mps 743 mmHg 80%
11:00 +7°C° 0.9 mm 4 mps 743 mmHg 84%
12:00 +7°C° 0.9 mm 5 mps 743 mmHg 89%
13:00 +8°C° 0.4 mm 4 mps 743 mmHg 83%
14:00 +10°C° 0.4 mm 4 mps 743 mmHg 77%
15:00 +11°C° 0.4 mm 4 mps 743 mmHg 71%
16:00 +10°C° 0.2 mm 3 mps 743 mmHg 76%
17:00 +9°C° 0.2 mm 2 mps 743 mmHg 80%
18:00 +8°C° 0.2 mm 2 mps 743 mmHg 85%
19:00 +8°C° 0.1 mm 2 mps 744 mmHg 87%
20:00 +7°C° 0.1 mm 3 mps 744 mmHg 88%
21:00 +7°C° 0.1 mm 3 mps 745 mmHg 90%
22:00 +7°C° 0.1 mm 3 mps 745 mmHg 91%
23:00 +5°C° 0.1 mm 4 mps 746 mmHg 93%

25 September, Friday

Time Temperature Precipitation Wind Pressure Humidity
00:00 +5°C° 0.1 mm 4 mps 746 mmHg 94%
01:00 +6°C° 0.4 mm 5 mps 747 mmHg 91%
02:00 +6°C° 0.4 mm 7 mps 747 mmHg 88%
03:00 +6°C° 0.4 mm 8 mps 747 mmHg 85%
04:00 +6°C° 0.2 mm 9 mps 748 mmHg 84%
05:00 +6°C° 0.2 mm 9 mps 749 mmHg 82%
06:00 +6°C° 0.2 mm 9 mps 749 mmHg 81%
07:00 +6°C° 0.1 mm 10 mps 750 mmHg 78%
08:00 +7°C° 0.1 mm 10 mps 751 mmHg 75%
09:00 +8°C° 0.1 mm 11 mps 752 mmHg 72%
10:00 +8°C° 0.2 mm 11 mps 752 mmHg 71%
11:00 +9°C° 0.2 mm 11 mps 753 mmHg 69%
12:00 +9°C° 0.2 mm 12 mps 754 mmHg 67%
13:00 +9°C° 0.2 mm 11 mps 754 mmHg 66%
14:00 +9°C° 0.2 mm 11 mps 755 mmHg 65%
15:00 +9°C° 0.2 mm 10 mps 755 mmHg 64%
16:00 +8°C° 0 mm 9 mps 756 mmHg 67%
17:00 +9°C° 0 mm 8 mps 756 mmHg 70%
18:00 +8°C° 0 mm 7 mps 757 mmHg 73%
19:00 +6°C° 0.1 mm 7 mps 757 mmHg 74%
20:00 +6°C° 0.1 mm 8 mps 758 mmHg 76%
21:00 +5°C° 0.1 mm 8 mps 758 mmHg 77%
22:00 +5°C° 0.1 mm 9 mps 758 mmHg 77%
23:00 +3°C° 0.1 mm 9 mps 759 mmHg 76%

26 September, Saturday

Time Temperature Precipitation Wind Pressure Humidity
00:00 +3°C° 0.1 mm 9 mps 759 mmHg 75%
01:00 +3°C° 0.1 mm 9 mps 759 mmHg 76%
02:00 +3°C° 0.1 mm 9 mps 759 mmHg 76%
03:00 +2°C° 0.1 mm 9 mps 759 mmHg 76%
04:00 +2°C° 0.1 mm 9 mps 759 mmHg 76%
05:00 +2°C° 0.1 mm 9 mps 759 mmHg 76%
06:00 +1°C° 0.1 mm 8 mps 760 mmHg 76%
07:00 +2°C° 0 mm 8 mps 760 mmHg 74%
08:00 +4°C° 0 mm 8 mps 760 mmHg 71%
09:00 +5°C° 0 mm 8 mps 760 mmHg 69%
10:00 +6°C° 0 mm 8 mps 761 mmHg 66%
11:00 +7°C° 0 mm 8 mps 761 mmHg 64%
12:00 +7°C° 0 mm 8 mps 761 mmHg 61%
13:00 +9°C° 0 mm 7 mps 761 mmHg 61%
14:00 +9°C° 0 mm 7 mps 761 mmHg 61%
15:00 +9°C° 0 mm 7 mps 761 mmHg 61%
16:00 +8°C° 0 mm 7 mps 761 mmHg 64%
17:00 +7°C° 0 mm 6 mps 762 mmHg 68%
18:00 +6°C° 0 mm 5 mps 762 mmHg 71%
19:00 +5°C° 0 mm 5 mps 762 mmHg 73%
20:00 +5°C° 0 mm 5 mps 763 mmHg 74%
21:00 +3°C° 0 mm 5 mps 763 mmHg 75%
22:00 +3°C° 0 mm 5 mps 763 mmHg 75%
23:00 +3°C° 0 mm 5 mps 763 mmHg 76%

27 September, Sunday

Time Temperature Precipitation Wind Pressure Humidity
00:00 +2°C° 0 mm 5 mps 763 mmHg 76%
01:00 +3°C° 0 mm 4 mps 763 mmHg 76%
02:00 +3°C° 0 mm 4 mps 763 mmHg 77%
03:00 +3°C° 0 mm 4 mps 763 mmHg 77%
04:00 +1°C° 0 mm 4 mps 764 mmHg 78%
05:00 +2°C° 0 mm 3 mps 764 mmHg 79%
06:00 +2°C° 0 mm 3 mps 764 mmHg 79%
07:00 +3°C° 0 mm 3 mps 764 mmHg 74%
08:00 +5°C° 0 mm 3 mps 764 mmHg 69%
09:00 +8°C° 0 mm 3 mps 764 mmHg 64%
10:00 +9°C° 0 mm 2 mps 764 mmHg 60%
11:00 +10°C° 0 mm 2 mps 763 mmHg 56%
12:00 +12°C° 0 mm 2 mps 763 mmHg 52%
13:00 +13°C° 0 mm 2 mps 763 mmHg 52%
14:00 +13°C° 0 mm 2 mps 763 mmHg 52%
15:00 +14°C° 0 mm 2 mps 763 mmHg 52%
16:00 +13°C° 0 mm 2 mps 763 mmHg 60%
17:00 +10°C° 0 mm 2 mps 763 mmHg 68%
18:00 +9°C° 0 mm 2 mps 763 mmHg 76%
19:00 +8°C° 0 mm 2 mps 763 mmHg 78%
20:00 +8°C° 0 mm 2 mps 763 mmHg 80%
21:00 +7°C° 0 mm 2 mps 763 mmHg 82%
22:00 +7°C° 0 mm 2 mps 762 mmHg 83%
23:00 +7°C° 0 mm 2 mps 762 mmHg 84%
Show more